User: anonymous   Login
Location: Unspecified
(0.0000°N, 0.0000°E)
Time: 11:20:04
(UTC+00:00)
Language:

Okean 3 - Orbit

View from above orbital plane
View from above orbital plane
View from above satellite
View from above satellite

Ground track
Ground track

The orbit data is extracted from the following two-line orbital elements,

1 21397U 91039A   18203.34735246 +.00000211 +00000-0 +17893-4 0  9998
2 21397 082.5231 118.2521 0017493 344.1360 015.9310 14.92688797448411
Epoch (UTC): 22 July 2018 08:20:11
Eccentricity: 0.0017493
inclination: 82.5231°
perigee height: 577 km
apogee height: 602 km
right ascension of ascending node: 118.2521°
argument of perigee: 344.1360°
revolutions per day: 14.92688797
mean anomaly at epoch: 15.9310°
orbit number at epoch: 44841

The dashed part of the orbit path shows where the satellite is in the earth's shadow,  

DLR